DW0148 Weather Reports


time (UTC)temp
C
wind
direction
speed
KPH
gust
KPH
rain 1hr
cm
rain 24hr
cm
rain mn
cm
humidity
%
barometer
mb
20170728110018 22 218 1.6 4.8 0.00 2.57 0.00 96 1011.5
20170728105515 22 217 1.6 4.8 0.00 2.59 0.00 96 1011.5
20170728105014 22 205 1.6 4.8 0.00 2.62 0.00 96 1011.5
20170728104514 22 224 1.6 6.4 0.00 2.62 0.00 96 1011.5
20170728104013 22 51 3.2 6.4 0.00 2.69 0.00 96 1011.5
20170728103512 22 61 3.2 4.8 0.00 2.82 0.00 96 1011.5
20170728103011 22 60 0.0 1.6 0.00 2.84 0.00 97 1011.5
20170728102510 22 60 0.0 1.6 0.00 2.84 0.00 97 1011.5
20170728102009 22 60 1.6 1.6 0.00 2.84 0.00 97 1011.5
20170728101508 22 60 1.6 1.6 0.00 2.84 0.00 97 1011.9
20170728101008 22 85 1.6 1.6 0.00 2.84 0.00 97 1011.9
20170728100507 22 85 0.0 0.0 0.00 2.84 0.00 97 1011.9
20170728100005 22 84 0.0 0.0 0.00 2.84 0.00 97 1011.5
20170728095504 22 84 0.0 0.0 0.00 2.84 0.00 97 1011.5
20170728095004 22 84 0.0 1.6 0.00 2.84 0.00 97 1011.5
20170728094502 22 85 0.0 1.6 0.00 2.84 0.00 97 1011.5
20170728094001 22 84 0.0 1.6 0.00 2.84 0.00 97 1011.5
20170728093500 22 84 1.6 1.6 0.00 2.84 0.00 97 1011.5
20170728092959 22 85 0.0 0.0 0.00 2.84 0.00 97 1011.5
20170728092459 22 84 0.0 0.0 0.00 2.84 0.00 97 1011.5
20170728091958 22 84 0.0 1.6 0.00 2.84 0.00 97 1011.5
20170728091457 22 84 0.0 1.6 0.00 2.84 0.00 97 1011.5
20170728090956 22 85 0.0 1.6 0.00 2.84 0.00 97 1011.5
20170728090455 22 85 0.0 1.6 0.00 2.84 0.00 97 1011.5
20170728085954 22 104 1.6 1.6 0.00 2.84 0.00 97 1011.9
20170728085453 22 104 0.0 1.6 0.00 2.84 0.00 97 1011.9
20170728084952 22 107 0.0 1.6 0.00 2.84 0.00 97 1011.9
20170728084450 22 108 0.0 1.6 0.00 2.84 0.00 97 1011.9
20170728083949 22 108 0.0 1.6 0.00 2.84 0.00 97 1011.9
20170728083449 22 107 1.6 1.6 0.00 2.84 0.00 97 1011.9
20170728082948 22 69 1.6 1.6 0.00 2.84 0.00 97 1011.9
20170728082447 22 71 0.0 0.0 0.00 2.84 0.00 97 1011.9
20170728081946 22 71 0.0 0.0 0.00 2.84 0.00 97 1011.9
20170728081445 22 70 0.0 0.0 0.00 2.84 0.00 97 1011.9
20170728080944 22 70 0.0 0.0 0.00 2.84 0.00 97 1011.9
20170728080443 22 70 0.0 0.0 0.00 2.84 0.00 97 1011.9
20170728075942 22 70 0.0 0.0 0.00 2.84 0.00 97 1011.9
20170728075441 22 70 0.0 0.0 0.00 2.84 0.00 97 1012.2
20170728074940 22 70 0.0 0.0 0.00 2.84 0.00 97 1011.9
20170728074439 22 72 0.0 0.0 0.00 2.84 0.00 97 1012.2
20170728073938 22 72 0.0 0.0 0.00 2.84 0.00 97 1012.2
20170728073437 22 72 0.0 0.0 0.00 2.84 0.00 97 1012.2
20170728072936 22 72 0.0 0.0 0.00 2.84 0.00 97 1012.2
20170728072435 22 72 0.0 0.0 0.00 2.84 0.00 97 1012.2
20170728071934 22 72 0.0 0.0 0.00 2.84 0.00 96 1012.2
20170728071433 22 72 0.0 0.0 0.00 2.84 0.00 96 1012.2
20170728070932 22 72 0.0 0.0 0.00 2.84 0.00 96 1012.2
20170728070431 22 72 0.0 0.0 0.00 2.84 0.00 96 1012.2
20170728065930 22 72 0.0 0.0 0.00 2.84 0.00 96 1012.2
20170728065429 22 72 0.0 0.0 0.00 2.84 0.00 97 1012.2
20170728064929 22 72 0.0 0.0 0.00 2.84 0.00 96 1012.2
20170728064428 22 72 0.0 0.0 0.00 2.84 0.00 96 1012.2
20170728063927 22 72 0.0 0.0 0.00 2.84 0.00 96 1012.2
20170728063426 22 72 0.0 0.0 0.00 2.84 0.00 96 1012.5
20170728062925 22 72 0.0 0.0 0.00 2.84 0.00 96 1012.5
20170728062424 22 72 0.0 0.0 0.00 2.84 0.00 96 1012.5
20170728061923 22 70 0.0 0.0 0.00 2.84 0.00 96 1012.5
20170728061422 22 70 0.0 0.0 0.00 2.84 0.00 96 1012.5
20170728060921 22 71 0.0 0.0 0.00 2.84 0.00 96 1012.9
20170728060420 22 71 0.0 0.0 0.00 2.84 0.00 96 1012.9
20170728055919 22 70 0.0 0.0 0.00 2.84 0.00 96 1012.5
20170728055329 22 70 0.0 0.0 0.00 2.84 0.00 96 1012.9
20170728054828 22 71 0.0 0.0 0.00 2.84 0.00 96 1012.9
20170728054327 22 71 0.0 0.0 0.00 2.84 0.00 96 1012.9
20170728053825 22 71 0.0 0.0 0.00 2.84 0.00 96 1012.9
20170728053324 23 71 0.0 0.0 0.00 2.84 0.00 96 1012.9
20170728052823 23 71 0.0 0.0 0.00 2.84 0.00 96 1012.9
20170728052323 23 71 0.0 0.0 0.00 2.84 0.00 96 1012.9
20170728051822 23 71 0.0 0.0 0.00 2.84 0.00 96 1012.9
20170728051321 23 71 0.0 0.0 0.00 2.84 0.00 96 1012.9
20170728050820 23 71 0.0 0.0 0.00 2.84 0.00 96 1012.9
20170728050319 23 71 0.0 0.0 0.00 2.84 0.00 96 1012.9
20170728045818 23 71 0.0 1.6 0.00 2.84 0.00 96 1012.9
20170728045317 23 71 0.0 1.6 0.00 2.84 0.00 96 1012.9
20170728044816 23 70 0.0 1.6 0.00 2.84 0.00 96 1012.9
20170728044314 23 75 1.6 1.6 0.00 2.84 0.00 96 1012.9
20170728043813 23 75 0.0 0.0 0.00 2.84 0.00 96 1012.9
20170728043312 23 75 0.0 0.0 0.00 2.84 0.00 96 1012.9
20170728042812 23 75 0.0 0.0 0.00 2.84 0.00 96 1012.9
20170728042311 23 77 0.0 0.0 0.00 2.84 0.00 96 1012.9
20170728041810 23 77 0.0 0.0 0.00 2.84 0.00 96 1012.9
20170728041309 23 76 0.0 0.0 0.00 2.84 0.00 96 1012.9
20170728040808 23 77 0.0 0.0 0.00 2.84 0.00 96 1012.9
20170728040307 23 77 0.0 0.0 0.00 2.84 0.00 96 1012.9
20170728035806 23 77 0.0 0.0 0.00 2.84 2.84 96 1012.9
20170728035302 23 76 0.0 0.0 0.00 2.84 2.84 96 1012.9
20170728034801 23 77 0.0 0.0 0.00 2.84 2.84 96 1012.9
20170728034300 23 76 0.0 0.0 0.00 2.84 2.84 96 1012.9
20170728033759 23 77 0.0 0.0 0.00 2.84 2.84 96 1012.9
20170728033259 23 76 0.0 0.0 0.00 2.84 2.84 96 1012.9
20170728032757 23 77 0.0 0.0 0.00 2.84 2.84 96 1013.2
20170728032256 23 77 0.0 0.0 0.00 2.84 2.84 95 1013.2
20170728031755 23 77 0.0 0.0 0.00 2.84 2.84 96 1013.2
20170728031253 23 76 0.0 0.0 0.00 2.84 2.84 95 1013.2
20170728030752 23 76 0.0 0.0 0.00 2.84 2.84 95 1012.9
20170728030251 23 76 0.0 0.0 0.00 2.84 2.84 95 1012.9
20170728025750 23 77 0.0 0.0 0.00 2.84 2.84 95 1012.9
20170728025249 24 77 0.0 0.0 0.00 2.84 2.84 95 1012.9
20170728024748 24 77 0.0 0.0 0.00 2.84 2.84 95 1012.9
20170728024247 24 76 0.0 0.0 0.00 2.84 2.84 95 1012.9
20170728023746 24 77 0.0 0.0 0.00 2.84 2.84 95 1012.9
20170728023245 24 77 0.0 0.0 0.00 2.84 2.84 95 1012.9
20170728022744 24 76 0.0 0.0 0.00 2.84 2.84 95 1012.9
20170728022243 24 76 0.0 0.0 0.00 2.84 2.84 95 1012.9
20170728021742 24 77 0.0 0.0 0.00 2.84 2.84 95 1012.9
20170728021239 24 77 0.0 0.0 0.00 2.84 2.84 95 1013.2
20170728020739 24 77 0.0 1.6 0.00 2.84 2.84 95 1012.9
20170728020238 24 77 0.0 1.6 0.00 2.84 2.84 95 1012.9
20170728015737 24 76 0.0 1.6 0.00 2.84 2.84 94 1013.2
20170728015236 24 77 0.0 1.6 0.00 2.84 2.84 94 1013.2
20170728014735 24 77 0.0 0.0 0.00 2.84 2.84 94 1013.2
20170728014234 24 77 0.0 0.0 0.00 2.84 2.84 94 1013.2
20170728013733 25 77 0.0 0.0 0.00 2.84 2.84 94 1013.2
20170728013232 25 77 0.0 0.0 0.00 2.84 2.84 94 1013.2
20170728012731 25 75 0.0 0.0 0.00 2.84 2.84 94 1013.2
20170728012230 25 75 0.0 0.0 0.00 2.84 2.84 94 1013.2
20170728011729 25 77 0.0 0.0 0.00 2.84 2.84 94 1013.2
20170728011228 25 75 0.0 0.0 0.00 2.84 2.84 94 1013.5
20170728010727 25 75 0.0 0.0 0.00 2.84 2.84 93 1013.5
20170728010226 25 75 0.0 0.0 0.00 2.84 2.84 93 1013.5
20170728005726 25 75 0.0 0.0 0.00 2.84 2.84 93 1013.5
20170728005224 25 75 0.0 0.0 0.00 2.84 2.84 92 1013.2
20170728004723 25 75 0.0 0.0 0.00 2.84 2.84 92 1013.2
20170728004222 25 75 0.0 0.0 0.00 2.84 2.84 92 1013.2
20170728003722 26 75 0.0 0.0 0.00 2.84 2.84 92 1013.2
20170728003220 26 75 0.0 0.0 0.00 2.84 2.84 91 1013.2
20170728002719 26 75 0.0 1.6 0.00 2.84 2.84 91 1013.2
20170728002218 26 77 0.0 1.6 0.00 2.84 2.84 91 1013.2
20170728001717 26 75 0.0 1.6 0.00 2.84 2.84 91 1013.2
20170728001213 26 75 1.6 1.6 0.00 2.84 2.84 90 1013.2
20170728000712 26 75 0.0 1.6 0.00 2.84 2.84 90 1013.2
20170728000211 26 75 0.0 1.6 0.00 2.84 2.84 90 1013.2
20170727235710 27 75 0.0 1.6 0.00 2.84 2.84 88 1013.2
20170727235209 27 75 1.6 1.6 0.00 2.84 2.84 88 1013.2
20170727234708 27 75 1.6 1.6 0.00 2.84 2.84 88 1012.9
20170727234206 27 75 1.6 4.8 0.00 2.84 2.84 88 1012.9
20170727233705 28 75 1.6 4.8 0.00 2.84 2.84 86 1012.9
20170727233204 28 146 0.0 4.8 0.00 2.84 2.84 87 1012.9
20170727232703 28 146 1.6 4.8 0.00 2.84 2.84 84 1012.9
20170727232202 28 149 0.0 4.8 0.00 2.84 2.84 83 1012.9
20170727231701 28 178 3.2 4.8 0.00 2.84 2.84 79 1012.9
20170727231159 29 163 0.0 4.8 0.00 2.84 2.84 81 1012.9
20170727230658 29 129 1.6 4.8 0.00 2.84 2.84 81 1012.9
20170727230158 29 173 1.6 6.4 0.00 2.84 2.84 80 1012.9
20170727225656 30 205 3.2 6.4 0.00 2.84 2.84 78 1012.9
20170727225155 30 140 0.0 1.6 0.00 2.84 2.84 82 1012.9
20170727224655 30 138 1.6 1.6 0.00 2.84 2.84 80 1012.9
20170727224153 30 167 0.0 3.2 0.00 2.84 2.84 78 1012.9
20170727223652 30 238 1.6 3.2 0.00 2.84 2.84 81 1012.5
20170727223152 30 243 0.0 4.8 0.00 2.84 2.84 80 1012.5
20170727222650 30 16 1.6 4.8 0.00 2.84 2.84 77 1012.5
20170727222149 30 204 1.6 1.6 0.00 2.84 2.84 76 1012.5
20170727221648 30 222 0.0 1.6 0.00 2.84 2.84 78 1012.5
20170727221147 30 117 1.6 1.6 0.00 2.84 2.84 77 1012.5
20170727220646 30 226 1.6 3.2 0.00 2.84 2.84 76 1012.5
20170727220145 30 217 1.6 3.2 0.00 2.84 2.84 77 1012.5
20170727215644 30 217 0.0 6.4 0.00 2.84 2.84 78 1012.5
20170727215142 30 195 3.2 6.4 0.00 2.84 2.84 76 1012.9
20170727214641 30 204 1.6 6.4 0.00 2.84 2.84 74 1012.9
20170727214140 30 217 1.6 4.8 0.00 2.84 2.84 74 1012.9
20170727213639 30 121 1.6 4.8 0.00 2.84 2.84 77 1012.9
20170727213138 30 161 1.6 4.8 0.00 2.84 2.84 76 1013.2
20170727212637 30 195 1.6 6.4 0.00 2.84 2.84 77 1013.2
20170727212135 29 110 1.6 6.4 0.00 2.84 2.84 78 1013.2
20170727211634 29 58 3.2 6.4 0.00 2.84 2.84 78 1013.2
20170727211130 28 156 1.6 8.0 0.00 2.84 2.84 82 1013.2
20170727210629 28 197 3.2 8.0 0.00 2.84 2.84 80 1013.2
20170727210128 28 163 3.2 8.0 0.00 2.84 2.84 83 1013.5
20170727205627 28 157 1.6 8.0 0.00 2.84 2.84 83 1013.5
20170727205126 28 215 1.6 8.0 0.00 2.84 2.84 83 1013.5
20170727204625 28 51 1.6 9.7 0.00 2.84 2.84 83 1013.5
20170727204125 28 146 3.2 9.7 0.00 2.84 2.84 87 1013.5
20170727203623 28 178 3.2 9.7 0.00 2.84 2.84 82 1013.9
20170727203122 28 218 4.8 8.0 0.00 2.84 2.84 81 1013.5
20170727202621 28 166 3.2 9.7 0.00 2.84 2.84 87 1013.9
20170727202120 28 202 3.2 9.7 0.00 2.84 2.84 88 1013.9
20170727201619 28 181 3.2 9.7 0.00 2.84 2.84 87 1013.9
20170727201118 28 188 1.6 4.8 0.03 2.84 2.84 91 1013.9
20170727200617 27 189 1.6 8.0 0.03 2.84 2.84 91 1013.9
20170727200116 27 131 0.0 8.0 0.43 2.84 2.84 91 1014.2
20170727195615 27 133 1.6 9.7 1.17 2.84 2.84 91 1014.2
20170727195114 27 153 3.2 9.7 1.88 2.84 2.84 92 1014.2
20170727194613 26 187 3.2 8.0 2.26 2.84 2.84 93 1014.6
20170727194111 26 245 3.2 4.8 2.41 2.84 2.84 96 1014.6
20170727193610 25 235 1.6 4.8 2.51 2.84 2.84 96 1014.6
20170727193109 25 59 1.6 8.0 2.51 2.84 2.84 96 1014.9
20170727192608 24 55 3.2 8.0 2.51 2.84 2.84 96 1014.9
20170727192107 23 56 1.6 16.1 2.51 2.84 2.84 95 1014.9
20170727191606 23 343 6.4 41.8 2.51 2.84 2.84 94 1014.6
20170727191105 23 235 3.2 41.8 2.49 2.82 2.82 93 1014.6
20170727190604 24 142 4.8 54.7 2.49 2.82 2.82 90 1014.9
20170727190103 25 339 33.8 54.7 2.08 2.44 2.44 86 1015.6
20170727185602 26 337 4.8 14.5 1.27 1.63 1.63 88 1015.9
20170727185101 27 314 4.8 16.1 0.64 0.99 0.99 84 1014.9
20170727184600 28 278 1.6 16.1 0.23 0.58 0.58 83 1014.9
20170727184059 30 73 3.2 20.9 0.10 0.46 0.46 75 1014.6
20170727183558 31 177 6.4 20.9 0.00 0.36 0.36 68 1014.6
20170727183057 31 163 9.7 14.5 0.00 0.36 0.36 68 1014.6
20170727182556 31 176 8.0 12.9 0.00 0.36 0.36 69 1014.6
20170727182055 31 191 4.8 12.9 0.00 0.36 0.36 71 1014.6
20170727181554 32 174 6.4 12.9 0.00 0.36 0.36 69 1014.6
20170727181053 32 251 1.6 12.9 0.00 0.36 0.36 69 1014.9
20170727180552 31 172 6.4 16.1 0.00 0.36 0.36 70 1014.9
20170727180051 32 166 6.4 16.1 0.00 0.36 0.36 67 1014.9
20170727175550 32 155 1.6 9.7 0.00 0.36 0.36 68 1015.2
20170727175049 32 154 3.2 11.3 0.00 0.36 0.36 67 1015.2
20170727174548 32 123 3.2 12.9 0.00 0.36 0.36 69 1015.6
20170727174047 31 266 3.2 14.5 0.00 0.36 0.36 68 1015.6
20170727173546 31 179 6.4 14.5 0.00 0.36 0.36 69 1015.6
20170727173045 31 296 1.6 14.5 0.00 0.36 0.36 70 1015.6
20170727172544 31 128 1.6 14.5 0.00 0.36 0.36 74 1015.2
20170727172044 31 115 3.2 17.7 0.00 0.36 0.36 70 1015.2
20170727171543 30 178 11.3 17.7 0.00 0.36 0.36 73 1015.2
20170727171042 30 167 9.7 17.7 0.00 0.36 0.36 74 1015.6
20170727170541 30 187 8.0 20.9 0.00 0.36 0.36 74 1015.6
20170727170040 30 169 11.3 20.9 0.00 0.36 0.36 73 1015.9
20170727165539 30 217 4.8 19.3 0.00 0.36 0.36 73 1015.9
20170727165038 30 179 6.4 22.5 0.00 0.36 0.36 74 1015.9
20170727164537 30 156 9.7 22.5 0.00 0.36 0.36 73 1016.3
20170727164036 30 162 12.9 20.9 0.00 0.36 0.36 74 1016.3
20170727163535 29 187 9.7 17.7 0.00 0.36 0.36 75 1016.6
20170727163034 29 176 9.7 16.1 0.00 0.36 0.36 74 1016.6
20170727162533 29 164 6.4 16.1 0.00 0.36 0.36 76 1016.6
20170727162023 28 183 8.0 16.1 0.00 0.36 0.36 75 1016.6
20170727161522 28 167 4.8 14.5 0.00 0.36 0.36 78 1016.6
20170727161021 28 204 8.0 14.5 0.00 0.36 0.36 76 1016.9
20170727160520 28 179 9.7 14.5 0.00 0.36 0.36 77 1016.9
20170727160019 28 147 3.2 11.3 0.00 0.36 0.36 79 1016.9
20170727155518 28 163 4.8 11.3 0.00 0.36 0.36 78 1017.3
20170727155016 28 164 4.8 12.9 0.00 0.36 0.36 77 1017.3
20170727154516 27 152 4.8 14.5 0.00 0.36 0.36 79 1017.3
20170727154015 27 171 4.8 14.5 0.00 0.36 0.36 80 1017.6
20170727153514 27 227 3.2 11.3 0.00 0.36 0.36 78 1017.3
20170727153013 27 172 4.8 12.9 0.00 0.36 0.36 80 1017.3
20170727152513 27 177 4.8 12.9 0.00 0.36 0.36 79 1017.6
20170727152012 27 147 6.4 14.5 0.00 0.36 0.36 79 1017.6
20170727151511 27 171 6.4 14.5 0.00 0.36 0.36 78 1017.6
20170727151010 27 185 6.4 16.1 0.00 0.36 0.36 79 1017.3
20170727150508 27 163 9.7 16.1 0.00 0.36 0.36 78 1017.6
20170727150007 27 182 4.8 8.0 0.00 0.36 0.36 81 1017.6
20170727145504 27 189 4.8 8.0 0.00 0.36 0.36 81 1017.6
20170727145003 27 156 4.8 8.0 0.00 0.36 0.36 82 1017.6
20170727144502 27 170 3.2 9.7 0.00 0.36 0.36 82 1017.6
20170727144001 27 150 4.8 12.9 0.00 0.36 0.36 80 1017.6
20170727143501 27 192 4.8 12.9 0.00 0.36 0.36 82 1017.6
20170727143000 26 211 4.8 12.9 0.00 0.36 0.36 82 1017.6
20170727142459 26 194 4.8 9.7 0.00 0.36 0.36 84 1017.6
20170727141958 26 166 6.4 9.7 0.00 0.36 0.36 84 1017.6
20170727141458 25 160 3.2 9.7 0.00 0.36 0.36 85 1017.6
20170727140957 25 198 4.8 9.7 0.00 0.36 0.36 86 1017.6
20170727140456 25 194 4.8 12.9 0.00 0.36 0.36 86 1017.6
20170727135955 25 177 3.2 12.9 0.00 0.36 0.36 87 1017.6
20170727135454 25 176 4.8 11.3 0.00 0.36 0.36 86 1017.6
20170727134953 25 174 4.8 12.9 0.00 0.36 0.36 88 1017.6
20170727134452 25 194 6.4 14.5 0.00 0.36 0.36 89 1017.6
20170727133951 25 179 4.8 14.5 0.00 0.36 0.36 88 1017.6
20170727133450 25 182 6.4 12.9 0.00 0.36 0.36 87 1017.6
20170727132950 25 186 6.4 12.9 0.00 0.36 0.36 87 1017.9
20170727132449 24 163 3.2 12.9 0.00 0.36 0.36 89 1017.9
20170727131948 24 165 3.2 12.9 0.00 0.36 0.36 89 1017.9
20170727131447 24 183 3.2 4.8 0.00 0.36 0.36 91 1017.9
20170727130946 23 165 1.6 4.8 0.00 0.36 0.36 92 1017.9
20170727130445 23 92 1.6 4.8 0.00 0.36 0.36 92 1017.9
20170727125945 23 183 0.0 4.8 0.00 0.36 0.36 92 1017.6
20170727125444 23 165 0.0 6.4 0.00 0.36 0.36 93 1017.6
20170727124943 23 176 3.2 6.4 0.00 0.36 0.36 93 1017.6
20170727124442 23 194 1.6 1.6 0.00 0.36 0.36 94 1017.9
20170727123939 23 201 0.0 1.6 0.00 0.36 0.36 94 1017.9
20170727123438 23 212 1.6 4.8 0.00 0.36 0.36 94 1017.6
20170727122937 22 225 1.6 4.8 0.00 0.36 0.36 94 1017.6
20170727122436 22 136 0.0 8.0 0.00 0.36 0.36 94 1017.9
20170727121935 22 199 3.2 9.7 0.03 0.36 0.36 94 1017.9
20170727121434 22 205 3.2 9.7 0.03 0.36 0.36 94 1017.9
20170727120933 22 199 4.8 12.9 0.03 0.36 0.36 94 1017.9
20170727120432 22 189 3.2 12.9 0.03 0.36 0.36 94 1017.6
20170727115931 22 156 4.8 16.1 0.05 0.36 0.36 94 1017.6
20170727115430 22 177 6.4 16.1 0.08 0.36 0.36 94 1017.6
20170727114929 22 170 3.2 9.7 0.10 0.36 0.36 94 1017.6
20170727114428 22 82 3.2 9.7 0.10 0.36 0.36 94 1017.6
20170727113927 22 186 4.8 12.9 0.20 0.36 0.36 94 1017.6
20170727113426 22 188 3.2 12.9 0.33 0.36 0.36 94 1017.6
20170727112925 22 179 3.2 14.5 0.36 0.36 0.36 94 1017.6
20170727112425 22 181 4.8 14.5 0.36 0.36 0.36 94 1017.3
20170727111923 22 198 3.2 14.5 0.33 0.33 0.33 93 1017.3
20170727111422 22 181 4.8 14.5 0.33 0.33 0.33 93 1017.3
20170727110921 22 183 3.2 12.9 0.33 0.33 0.33 93 1017.3
20170727110420 22 174 4.8 9.7 0.33 0.33 0.33 94 1017.3